Starlink 4026

operational
NORAD ID: 52600 Int'l Des: 2022-052 Owner: SPXS Country: US Constellation: starlink
LEOCIRCULAR

Über Starlink 4026

Beschreibung wird geladen...

Live-Position

3D-Globus wird geladen...

Nächste Überflüge

Höhenverlauf

Altitude vs Time

uPlot chart will show altitude changes over time

Zweizeiliger Elementsatz

1 52600U 22052C 25343.63922716 .00001958 00000-0 14105-3 0 9994
2 52600 53.2194 323.3748 0001661 87.0163 273.1019 15.08848377198066
Epoch: 9. Dez. 2025 • Age: 4 hours

Aktueller Status

Höhe 541.0 km
Geschwindigkeit 7.60 km/s
Subsatellitenpunkt 31.56°N, 109.68°E
Startdatum 14. Mai 2022
Alter 3.5 years
Typ internet

Technische Details

Klassifizierung Payload
Masse 297.00 kg
Trockenmasse 275.00 kg
Gesamtmasse 297.00 kg
Länge 0.20 m
Durchmesser 2.80 m
Spannweite 9.00 m
Form Box + pan
Hersteller SPXS
Bus-Typ Starlink
Phasenstatus In Orbit
Besitzer/Staat SPXS/US

Große Konstellationen

Loading constellations...